					
						 
					 | 
				
				
				
					
						
					 | 
				
				
				
					
					
					Asteroid 2012 YN6
					
					
					
					
						
					
					
						
							(Preview)
						
						
						
						
							
						
							
								Orbital elements:
2012 YN6                                                 Earth MOID = 0.0528 AU
Epoch 2012 Sept. 30.0 TT = JDT 2456200.5                MPC
M 317.05015              (2000.0)            P               Q
n   0.32890960     Peri.  207.52401     -0.75596827     -0.64831419
a   2.0785079      Node   291.76537     +0.61709091     -0.65962915
e   0.5082203      Incl.    5.59575     +0.21842799     -0.38023427
P   3.00           H   22.1...                                 
							 
							
						 
						
					
				 | 
				
					
						Blobrana
					 | 
				
				
					
						1
					 | 
				
				
				
					
						
					 | 
				
				
					
						
					 | 
				
			
		
			
			
				
				
					
						 
					 | 
				
				
				
					
						 
					 | 
				
				
				
					
					
					Asteroid 2012 SD22
					
					
					
					
						
					
					
						
							(Preview)
						
						
						
						
							
						
							
								Orbital elements:
2012 SD22                                           PHA, Earth MOID = 0.0157 AU
Epoch 2012 Sept. 30.0 TT = JDT 2456200.5                MPC
M 330.85448              (2000.0)            P               Q
n   0.35768424     Peri.  313.47509     -0.07186662     -0.99361084
a   1.9654840      Node   140.39739     +0.94999015     -0.09477140
e   0.5729417      Incl.    7.84609     +0.30389786     +0.06128521
P   2.76...                                               
							 
							
						 
						
					
				 | 
				
					
						Blobrana
					 | 
				
				
					
						2
					 | 
				
				
				
					
						
					 | 
				
				
					
						
					 | 
				
			
		
			
			
				
				
					
						 
					 | 
				
				
				
					
						
					 | 
				
				
				
					
					
					Asteroid 2012 UW68
					
					
					
					
						
					
					
						
							(Preview)
						
						
						
						
							
						
							
								Orbital elements:
2012 UW68                                                Earth MOID = 0.0251 AU
Epoch 2012 Sept. 30.0 TT = JDT 2456200.5                MPC
M 270.22919              (2000.0)            P               Q
n   0.81424614     Peri.  101.67396     -0.47569560     -0.87952289
a   1.1357923      Node    16.74765     +0.78937170     -0.43306007
e   0.1551824      Incl.    2.46166     +0.38807991     -0.19722692
P   1.21           H   25.0... 
							 
							
						 
						
					
				 | 
				
					
						Blobrana
					 | 
				
				
					
						1
					 | 
				
				
				
					
						
					 | 
				
				
					
						
					 | 
				
			
		
			
			
				
				
					
						 
					 | 
				
				
				
					
						
					 | 
				
				
				
					
					
					Asteroid 2012 BD14
					
					
					
					
						
					
					
						
							(Preview)
						
						
						
						
							
						
							
								Orbital elements:
2012 BD14                                                Earth MOID = 0.0080 AU
Epoch 2012 Mar. 14.0 TT = JDT 2456000.5                 MPC
M 332.14918              (2000.0)            P               Q
n   0.96016350     Peri.  293.92466     -0.69048655     +0.72291693
a   1.0175894      Node   292.38244     -0.65348556     -0.63818323
e   0.2394337      Incl.    1.54237     -0.31013698     -0.26478912
P   1.03           H   26.7...                                    
							 
							
						 
						
					
				 | 
				
					
						Blobrana
					 | 
				
				
					
						1
					 | 
				
				
				
					
						
					 | 
				
				
					
						
					 |